Date String (YYYY-MM-DD hh:mm:ss) UTC,Instrument flags,Ambient pressure (hPa),Sample flow (lpm),Bypass flow (lpm),Sample temperature (°C),Ambient temperature (°C),ASC tube jacket temperature (°C),LED temperature (°C),Box temperature (°C),Sample RH (%),Span deviation,Mass concentration (μg/m³),Mass concentration (μg/m³),Mass concentration (μg/m³)
DateTimeUTC,F1_M11,P_M11,Q1_M11,Q2_M11,T1_M11,T2_M11,T3_M11,T4_M11,T5_M11,U1_M11,ZSPAN_M11,X0_M11,X2_M11,X1_M11
2023-01-15 15:00:00,,0810.7,5.00,0.00,22.4,21.0,00.0,31.3,24.2,14.0,0000.0,0004.84,0002.38,0002.00
2023-01-15 15:01:00,,0810.7,5.00,0.00,22.4,21.0,00.0,31.3,24.1,14.1,0000.0,0004.97,0002.32,0001.92
2023-01-15 15:02:00,,0810.7,4.99,0.00,22.4,21.0,00.0,31.2,24.1,14.0,0000.0,0005.62,0002.23,0001.84
2023-01-15 15:03:00,,0810.7,5.00,0.00,22.4,21.0,00.0,31.2,24.1,14.2,0000.0,0005.49,0002.14,0001.77
2023-01-15 15:04:00,,0810.6,5.01,0.00,22.3,21.0,00.0,31.2,24.1,14.1,0000.0,0005.50,0002.06,0001.70
2023-01-15 15:05:00,,0810.6,5.02,0.00,22.3,21.0,00.0,31.2,24.0,14.1,0000.0,0005.49,0001.98,0001.68
2023-01-15 15:06:00,,0810.5,5.00,0.00,22.3,21.0,00.0,31.2,24.0,14.0,0000.0,0005.45,0001.96,0001.67
2023-01-15 15:07:00,,0810.5,5.00,0.00,22.3,21.0,00.0,31.2,23.9,14.0,0000.0,0005.38,0001.92,0001.65
2023-01-15 15:08:00,,0810.5,4.98,0.00,22.3,20.9,00.0,31.2,23.9,13.9,0000.0,0004.73,0001.90,0001.64
2023-01-15 15:09:00,,0810.5,5.00,0.00,22.3,20.9,00.0,31.2,24.0,13.8,0000.0,0004.15,0001.88,0001.64
2023-01-15 15:10:00,,0810.5,4.99,0.00,22.3,20.9,00.0,31.2,24.0,13.7,0000.0,0004.07,0001.84,0001.62
2023-01-15 15:11:00,,0810.5,4.99,0.00,22.3,20.9,00.0,31.2,24.0,13.9,0000.0,0003.73,0001.84,0001.64
2023-01-15 15:12:00,,0810.5,5.00,0.00,22.3,20.9,00.0,31.2,24.0,13.8,0000.0,0003.58,0001.83,0001.65
2023-01-15 15:13:00,,0810.5,5.01,0.00,22.3,20.9,00.0,31.2,24.0,13.8,0000.0,0002.74,0001.83,0001.65
2023-01-15 15:14:00,,0810.5,5.00,0.00,22.3,20.9,00.0,31.2,24.0,13.8,0000.0,0002.71,0001.83,0001.64
2023-01-15 15:15:00,,0810.5,4.99,0.00,22.3,20.9,00.0,31.2,24.0,13.8,0000.0,0002.68,0001.83,0001.63
2023-01-15 15:16:00,,0810.5,5.00,0.00,22.3,21.0,00.0,31.2,24.1,13.8,0000.0,0002.45,0001.83,0001.63
2023-01-15 15:17:00,,0810.5,4.99,0.00,22.3,21.0,00.0,31.2,24.0,13.9,0000.0,0002.78,0001.86,0001.64
2023-01-15 15:18:00,,0810.5,5.02,0.00,22.3,21.0,00.0,31.2,24.0,13.6,0000.0,0002.84,0001.90,0001.66
2023-01-15 15:19:00,,0810.5,4.99,0.00,22.3,21.0,00.0,31.2,24.1,13.7,0000.0,0002.86,0001.93,0001.70
2023-01-15 15:20:00,,0810.5,5.00,0.00,22.3,21.0,00.0,31.2,24.1,13.7,0000.0,0002.96,0001.99,0001.74
2023-01-15 15:21:00,,0810.5,5.00,0.00,22.3,21.0,00.0,31.2,24.0,13.7,0000.0,0003.08,0002.07,0001.80
2023-01-15 15:22:00,,0810.5,5.00,0.00,22.3,21.0,00.0,31.2,24.0,13.9,0000.0,0003.31,0002.12,0001.83
2023-01-15 15:23:00,,0810.5,5.01,0.00,22.3,21.0,00.0,31.2,24.0,13.9,0000.0,0003.40,0002.12,0001.84
2023-01-15 15:24:00,,0810.5,5.00,0.00,22.3,21.0,00.0,31.2,24.0,13.9,0000.0,0003.37,0002.12,0001.85
2023-01-15 15:25:00,,0810.6,5.00,0.00,22.3,21.0,00.0,31.2,24.0,13.8,0000.0,0003.44,0002.12,0001.85
2023-01-15 15:26:00,,0810.5,4.98,0.00,22.3,21.0,00.0,31.2,24.0,13.7,0000.0,0003.41,0002.10,0001.84
2023-01-15 15:27:00,,0810.5,5.00,0.00,22.3,21.0,00.0,31.2,24.0,13.7,0000.0,0003.33,0002.06,0001.82
2023-01-15 15:28:00,,0810.5,5.00,0.00,22.3,21.0,00.0,31.2,24.0,13.7,0000.0,0002.93,0001.99,0001.77
2023-01-15 15:29:00,,0810.5,5.00,0.00,22.3,21.0,00.0,31.2,24.0,13.6,0000.0,0002.88,0001.91,0001.71
2023-01-15 15:30:00,,0810.5,5.00,0.00,22.3,21.0,00.0,31.2,24.0,13.6,0000.0,0003.04,0001.89,0001.65
2023-01-15 15:31:00,,0810.6,4.99,0.00,22.3,21.0,00.0,31.2,24.0,13.6,0000.0,0003.10,0001.81,0001.58
2023-01-15 15:32:00,,0810.6,5.01,0.00,22.3,21.0,00.0,31.2,24.0,13.6,0000.0,0002.99,0001.74,0001.52
2023-01-15 15:33:00,,0810.6,5.00,0.00,22.3,21.0,00.0,31.2,24.1,13.7,0000.0,0002.65,0001.63,0001.45
2023-01-15 15:34:00,,0810.7,5.00,0.00,22.3,21.0,00.0,31.2,24.1,13.9,0000.0,0002.48,0001.61,0001.41
2023-01-15 15:35:00,,0810.6,5.00,0.00,22.3,21.0,00.0,31.2,24.1,13.7,0000.0,0002.44,0001.57,0001.37
2023-01-15 15:36:00,,0810.6,5.00,0.00,22.3,21.0,00.0,31.2,24.1,13.7,0000.0,0002.30,0001.52,0001.33
2023-01-15 15:37:00,,0810.7,5.01,0.00,22.3,21.0,00.0,31.2,24.1,13.6,0000.0,0002.48,0001.48,0001.30
2023-01-15 15:38:00,,0810.7,5.00,0.00,22.3,21.0,00.0,31.2,24.1,13.6,0000.0,0003.23,0001.47,0001.28
2023-01-15 15:39:00,,0810.7,5.00,0.00,22.3,21.0,00.0,31.2,24.1,13.6,0000.0,0003.26,0001.48,0001.28
2023-01-15 15:40:00,,0810.8,5.00,0.00,22.3,21.0,00.0,31.2,24.1,13.5,0000.0,0003.30,0001.52,0001.29
2023-01-15 15:41:00,,0810.8,5.00,0.00,22.3,21.1,00.0,31.2,24.2,13.6,0000.0,0003.16,0001.51,0001.30
2023-01-15 15:42:00,,0810.8,5.00,0.00,22.3,21.1,00.0,31.2,24.2,13.7,0000.0,0002.99,0001.52,0001.31
2023-01-15 15:43:00,,0810.8,5.01,0.00,22.3,21.1,00.0,31.2,24.1,13.7,0000.0,0002.99,0001.53,0001.32
2023-01-15 15:44:00,,0810.8,5.02,0.00,22.4,21.1,00.0,31.2,24.1,13.9,0000.0,0003.14,0001.61,0001.35
2023-01-15 15:45:00,,0810.8,5.01,0.00,22.4,21.1,00.0,31.2,24.2,14.3,0000.0,0003.17,0001.61,0001.38
2023-01-15 15:46:00,,0810.7,4.99,0.00,22.4,21.1,00.0,31.2,24.2,14.4,0000.0,0003.24,0001.65,0001.41
2023-01-15 15:47:00,,0810.7,5.00,0.00,22.4,21.1,00.0,31.2,24.2,14.6,0000.0,0003.28,0001.69,0001.45
2023-01-15 15:48:00,,0810.8,5.01,0.00,22.4,21.1,00.0,31.2,24.2,14.7,0000.0,0003.06,0001.74,0001.50
2023-01-15 15:49:00,,0810.7,5.00,0.00,22.4,21.1,00.0,31.2,24.2,15.5,0000.0,0002.40,0001.77,0001.51
2023-01-15 15:50:00,,0810.8,4.99,0.00,22.4,21.1,00.0,31.2,24.3,15.5,0000.0,0002.82,0001.84,0001.54
2023-01-15 15:51:00,,0810.8,5.00,0.00,22.4,21.1,00.0,31.2,24.3,14.8,0000.0,0003.30,0001.92,0001.58
2023-01-15 15:52:00,,0810.8,5.00,0.00,22.4,21.0,00.0,31.2,24.2,14.7,0000.0,0003.49,0002.00,0001.61
2023-01-15 15:53:00,,0810.8,5.01,0.00,22.4,21.0,00.0,31.2,24.2,14.8,0000.0,0003.57,0002.05,0001.65
2023-01-15 15:54:00,,0810.8,5.02,0.00,22.4,20.9,00.0,31.2,24.2,14.8,0000.0,0003.80,0002.14,0001.70
2023-01-15 15:55:00,,0810.8,4.99,0.00,22.4,20.9,00.0,31.2,24.2,15.0,0000.0,0005.59,0002.19,0001.74
2023-01-15 15:56:00,,0810.8,5.01,0.00,22.3,20.9,00.0,31.2,24.1,15.3,0000.0,0005.80,0002.26,0001.78
2023-01-15 15:57:00,,0810.8,4.99,0.00,22.3,20.9,00.0,31.2,24.1,15.5,0000.0,0006.16,0002.37,0001.85
2023-01-15 15:58:00,,0810.9,5.01,0.00,22.3,20.9,00.0,31.2,24.1,15.3,0000.0,0006.67,0002.48,0001.90
2023-01-15 15:59:00,,0810.8,5.00,0.00,22.3,21.0,00.0,31.2,24.1,15.3,0000.0,0006.94,0002.60,0001.95
